TimeCST,TemperatureF,Dew PointF,Humidity,Sea Level PressureIn,VisibilityMPH,Wind Direction,Wind SpeedMPH,Gust SpeedMPH,PrecipitationIn,Events,Conditions,WindDirDegrees,DateUTC
12:53 AM,41.0,36.0,82,30.52,10.0,North,5.8,-,N/A,,Clear,360,2013-01-18 06:53:00
1:53 AM,39.9,35.1,83,30.54,10.0,North,5.8,-,N/A,,Clear,10,2013-01-18 07:53:00
2:53 AM,39.0,33.1,79,30.55,10.0,North,5.8,-,N/A,,Clear,350,2013-01-18 08:53:00
3:53 AM,37.0,32.0,82,30.55,10.0,North,5.8,-,N/A,,Clear,10,2013-01-18 09:53:00
4:53 AM,36.0,32.0,86,30.56,10.0,NNE,3.5,-,N/A,,Clear,20,2013-01-18 10:53:00
5:53 AM,35.1,32.0,89,30.56,10.0,Calm,Calm,-,N/A,,Clear,0,2013-01-18 11:53:00
6:53 AM,33.1,30.9,92,30.57,9.0,NNE,4.6,-,N/A,,Clear,20,2013-01-18 12:53:00
7:53 AM,37.0,32.0,82,30.58,9.0,NE,6.9,-,N/A,,Clear,50,2013-01-18 13:53:00
8:53 AM,39.9,33.1,77,30.60,10.0,ENE,6.9,-,N/A,,Clear,60,2013-01-18 14:53:00
9:53 AM,43.0,33.1,68,30.61,10.0,East,8.1,-,N/A,,Clear,100,2013-01-18 15:53:00
10:53 AM,46.9,34.0,61,30.58,10.0,Calm,Calm,-,N/A,,Clear,0,2013-01-18 16:53:00
11:53 AM,50.0,30.9,48,30.54,10.0,SE,8.1,-,N/A,,Clear,130,2013-01-18 17:53:00
12:53 PM,53.1,28.9,40,30.50,10.0,ESE,4.6,-,N/A,,Clear,110,2013-01-18 18:53:00
1:53 PM,55.0,28.9,37,30.48,10.0,Calm,Calm,-,N/A,,Clear,0,2013-01-18 19:53:00
2:53 PM,57.0,30.0,36,30.46,10.0,Calm,Calm,-,N/A,,Clear,0,2013-01-18 20:53:00
3:53 PM,57.0,27.0,32,30.44,10.0,Calm,Calm,-,N/A,,Clear,0,2013-01-18 21:53:00
4:53 PM,55.9,35.1,45,30.44,10.0,North,3.5,-,N/A,,Clear,350,2013-01-18 22:53:00
5:53 PM,51.1,37.0,59,30.45,10.0,NNW,4.6,-,N/A,,Clear,330,2013-01-18 23:53:00
6:53 PM,48.0,39.0,71,30.45,10.0,NNW,3.5,-,N/A,,Clear,330,2013-01-19 00:53:00
7:53 PM,44.1,39.9,85,30.44,10.0,Calm,Calm,-,N/A,,Clear,0,2013-01-19 01:53:00
8:53 PM,43.0,39.9,89,30.44,10.0,Calm,Calm,-,N/A,,Clear,0,2013-01-19 02:53:00
9:53 PM,39.9,39.0,97,30.43,5.0,Calm,Calm,-,N/A,,Clear,0,2013-01-19 03:53:00
9:58 PM,41.0,39.2,93,30.41,1.8,Calm,Calm,-,N/A,,Clear,0,2013-01-19 03:58:00
10:11 PM,39.2,37.4,93,30.41,4.0,Calm,Calm,-,N/A,,Clear,0,2013-01-19 04:11:00
10:53 PM,39.9,37.9,93,30.42,10.0,Calm,Calm,-,N/A,,Clear,0,2013-01-19 04:53:00
11:21 PM,39.2,37.4,93,30.39,1.8,Calm,Calm,-,N/A,,Clear,0,2013-01-19 05:21:00
11:31 PM,39.2,37.4,93,30.39,3.0,Calm,Calm,-,N/A,,Clear,0,2013-01-19 05:31:00
11:53 PM,37.9,37.0,97,30.42,3.0,Calm,Calm,-,N/A,,Clear,0,2013-01-19 05:53:00